VVBA05 KMSV-KMSV

Flight info

Callsign VVBA05
Flight time 0h 14m
Altitude 30000
Route VFR
Aircraft F18S/M-VD/C

Departure

Time 2026-05-07 14:54
Airport Sullivan County International Airport (KMSV)

Arrival

Time 2026-05-07 15:08
Airport Sullivan County International Airport (KMSV)
Time Latitude Longitude Altitude Speed Heading
2026-05-07 14:35 41.70255 -74.80003 1407 ft 0 kts 51°
2026-05-07 14:36 41.70297 -74.80048 1407 ft 0 kts 51°
2026-05-07 14:38 41.70328 -74.80001 1409 ft 22 kts 48°
2026-05-07 14:38 41.70348 -74.79942 1402 ft 13 kts 57°
2026-05-07 14:38 41.70424 -74.79950 1403 ft 16 kts 323°
2026-05-07 14:38 41.70525 -74.80051 1403 ft 22 kts 324°
2026-05-07 14:39 41.70638 -74.80163 1410 ft 18 kts 326°
2026-05-07 14:39 41.70710 -74.80236 1409 ft 8 kts 320°
2026-05-07 14:39 41.70717 -74.80244 1409 ft 0 kts 322°
2026-05-07 14:40 41.70734 -74.80261 1412 ft 12 kts 325°
2026-05-07 14:41 41.70796 -74.80276 1412 ft 0 kts 43°
2026-05-07 14:43 41.70799 -74.80272 1411 ft 3 kts 43°
2026-05-07 14:43 41.70831 -74.80209 1412 ft 12 kts 67°
2026-05-07 14:44 41.70787 -74.80150 1408 ft 7 kts 142°
2026-05-07 14:44 41.70769 -74.80132 1412 ft 0 kts 142°
2026-05-07 14:54 41.70457 -74.79814 1401 ft 160 kts 142°
2026-05-07 14:54 41.69490 -74.78850 2805 ft 101 kts 324°
2026-05-07 14:54 41.69366 -74.79905 2563 ft 235 kts 220°
2026-05-07 14:54 41.68219 -74.81606 2530 ft 247 kts 262°
2026-05-07 14:55 41.68626 -74.83711 2420 ft 238 kts 309°
2026-05-07 14:55 41.69948 -74.85002 2506 ft 241 kts 332°
2026-05-07 14:55 41.70434 -74.83053 1585 ft 381 kts 92°
2026-05-07 14:55 41.70632 -74.78911 1839 ft 432 kts 13°
2026-05-07 14:56 41.72967 -74.81080 2084 ft 442 kts 333°
2026-05-07 14:56 41.72663 -74.82239 2027 ft 380 kts 131°
2026-05-07 14:56 41.70637 -74.80013 1505 ft 357 kts 150°
2026-05-07 14:56 41.69194 -74.78474 4097 ft 237 kts 320°
2026-05-07 14:57 41.70581 -74.79798 2776 ft 184 kts 315°
2026-05-07 14:57 41.70162 -74.79478 1714 ft 189 kts 144°
2026-05-07 14:57 41.69086 -74.78360 1749 ft 206 kts 144°
2026-05-07 14:57 41.67917 -74.77155 1830 ft 218 kts 144°
2026-05-07 14:58 41.66675 -74.75889 2013 ft 230 kts 152°
2026-05-07 14:58 41.65732 -74.76681 1933 ft 188 kts 261°
2026-05-07 14:58 41.65721 -74.78447 2116 ft 190 kts 279°
2026-05-07 14:58 41.66036 -74.80143 2494 ft 187 kts 294°
2026-05-07 14:59 41.66603 -74.81795 2545 ft 202 kts 307°
2026-05-07 14:59 41.66489 -74.82986 3307 ft 225 kts 207°
2026-05-07 14:59 41.65637 -74.84897 2967 ft 296 kts 320°
2026-05-07 14:59 41.67438 -74.85742 4580 ft 341 kts 347°
2026-05-07 15:00 41.68615 -74.83351 2470 ft 502 kts 94°
2026-05-07 15:00 41.70503 -74.79390 3756 ft 175 kts 53°
2026-05-07 15:00 41.70360 -74.79420 6576 ft 157 kts 242°
2026-05-07 15:00 41.69677 -74.81936 2124 ft 384 kts 255°
2026-05-07 15:01 41.70513 -74.83887 1776 ft 283 kts 55°
2026-05-07 15:01 41.71271 -74.82541 1625 ft 214 kts 341°
2026-05-07 15:01 41.72220 -74.82560 1526 ft 254 kts 227°
2026-05-07 15:01 41.71387 -74.80887 1451 ft 363 kts 111°
2026-05-07 15:02 41.68983 -74.78306 1567 ft 547 kts 142°
2026-05-07 15:02 41.67389 -74.79999 1686 ft 301 kts 265°
2026-05-07 15:02 41.67197 -74.82956 1687 ft 339 kts 269°
2026-05-07 15:02 41.67181 -74.86329 1618 ft 385 kts 274°
2026-05-07 15:03 41.67364 -74.90102 1531 ft 427 kts 277°
2026-05-07 15:03 41.69072 -74.91561 2225 ft 356 kts 36°
2026-05-07 15:03 41.69428 -74.88467 1845 ft 380 kts 104°
2026-05-07 15:03 41.69601 -74.84943 1863 ft 394 kts 68°
2026-05-07 15:04 41.70836 -74.81581 2559 ft 408 kts 55°
2026-05-07 15:04 41.72608 -74.78717 3275 ft 360 kts
2026-05-07 15:04 41.72971 -74.80403 3775 ft 264 kts 231°
2026-05-07 15:04 41.71440 -74.80788 2104 ft 288 kts 138°
2026-05-07 15:05 41.70258 -74.80289 1693 ft 195 kts 38°
2026-05-07 15:05 41.69863 -74.78989 2168 ft 229 kts 95°
2026-05-07 15:05 41.69616 -74.78695 2746 ft 156 kts 267°
2026-05-07 15:05 41.70032 -74.79888 1988 ft 183 kts 24°
2026-05-07 15:06 41.69189 -74.79038 2634 ft 306 kts 176°
2026-05-07 15:06 41.66705 -74.78058 2627 ft 437 kts 73°
2026-05-07 15:06 41.68888 -74.78241 1568 ft 347 kts 324°
2026-05-07 15:06 41.70649 -74.79526 1606 ft 250 kts 64°
2026-05-07 15:07 41.70420 -74.79899 1607 ft 267 kts 321°
2026-05-07 15:07 41.72465 -74.80474 1575 ft 426 kts 72°
2026-05-07 15:07 41.70359 -74.79743 1477 ft 389 kts 143°
2026-05-07 15:07 41.69961 -74.79122 1502 ft 237 kts 138°
2026-05-07 15:08 41.68605 -74.77839 2253 ft 141 kts 284°
2026-05-07 15:08 41.69299 -74.78639 1476 ft 166 kts 323°
2026-05-07 15:08 41.69985 -74.79327 1393 ft 71 kts 322°
2026-05-07 15:08 41.70261 -74.79606 1401 ft 36 kts 324°
2026-05-07 15:09 41.70415 -74.79769 1401 ft 23 kts 305°
2026-05-07 15:09 41.70359 -74.79916 1403 ft 16 kts 236°
2026-05-07 15:09 41.70307 -74.79980 1405 ft 3 kts 169°
2026-05-07 15:09 41.70288 -74.79969 1407 ft 9 kts 140°
2026-05-07 15:10 41.70234 -74.79911 1406 ft 11 kts 142°
2026-05-07 15:10 41.70154 -74.79833 1405 ft 15 kts 143°
2026-05-07 15:10 41.70093 -74.79793 1404 ft 4 kts 203°
2026-05-07 15:10 41.70073 -74.79820 1406 ft 5 kts 233°
2026-05-07 15:11 41.70056 -74.79853 1412 ft 4 kts 238°
2026-05-07 15:11 41.70044 -74.79879 1412 ft 3 kts 239°
2026-05-07 15:11 41.70028 -74.79910 1415 ft 5 kts 233°
2026-05-07 15:11 41.70025 -74.79916 1414 ft 0 kts 233°
2026-05-07 15:17 41.70002 -74.79960 1415 ft 11 kts 245°
2026-05-07 15:17 41.70043 -74.80037 1416 ft 8 kts 241°
2026-05-07 15:17 41.70007 -74.79986 1411 ft 15 kts 148°
2026-05-07 15:18 41.70026 -74.79914 1415 ft 32 kts 53°
2026-05-07 15:18 41.70129 -74.79807 1405 ft 12 kts 324°
2026-05-07 15:18 41.70266 -74.79946 1405 ft 24 kts 319°
2026-05-07 15:18 41.70313 -74.80047 1407 ft 7 kts 234°
2026-05-07 15:19 41.70303 -74.80044 1410 ft 0 kts 53°